Weather History for Toronto, ON

Change the Weather History Date:

Sunday, March 3, 2013

  Actual Average Record
Temperature  
Mean Temperature 22 °F -  
Max Temperature 25 °F 39 °F 46 °F (2012)
Min Temperature 19 °F 28 °F -9 °F (2003)
Degree Days  
Heating Degree Days 43    
Moisture  
Dew Point 15 °F    
Average Humidity 71    
Maximum Humidity 80    
Minimum Humidity 47    
Precipitation  
Precipitation 0.00 in 0.08 in - ()
Sea Level Pressure  
Sea Level Pressure 29.93 in    
Wind  
Wind Speed 10 mph ()    
Max Wind Speed 16 mph    
Max Gust Speed 25 mph    
Visibility 8.4 miles    
Events Snow    
Averages and records for this station are not official NWS values.
T = Trace of Precipitation, MM = Missing Value Source: Averaged Metar Reports

Daily Weather History Graph

Daily Weather History Graph

Search for Another Location

Airport:

Trip Planner

Search our weather history database for the weather conditions in past years. The results will help you decide how hot, cold, wet, or windy it might be!

Date:

Astronomy

Mar. 03, 2013 Rise Set
Actual Time 6:50 AM EST 6:09 PM EST
Civil Twilight 6:21 AM EST 6:37 PM EST
Nautical Twilight 5:48 AM EST 7:11 PM EST
Astronomical Twilight 5:15 AM EST 7:44 PM EST
Moon No Moon Rise 9:51 AM EST (3/3)
Length of Visible Light 12h 16m
Length of Day
11h 18m
Waning Gibbous, 64% of the Moon is Illuminated
Mar 3
Waning Gibbous
Mar 4
Last Quarter
Mar 11
New
Mar 19
First Quarter
Mar 27
Full

Hourly Weather History & Observations

Time (EST) Temp. Windchill Dew Point Humidity Pressure Visibility Wind Dir Wind Speed Gust Speed Precip Events Conditions
12:00 AM 24.8 °F 13.4 °F 14.0 °F 64% 29.94 in 9.0 mi North 12.7 mph 19.6 mph N/A   Overcast
1:00 AM 23.0 °F 11.1 °F 14.0 °F 68% 29.94 in 9.0 mi NNW 12.7 mph - N/A   Overcast
2:00 AM 23.0 °F 12.4 °F 15.8 °F 74% 29.94 in 9.0 mi NW 10.4 mph - N/A   Overcast
2:27 AM 23.0 °F 11.7 °F 15.8 °F 74% 29.94 in 9.0 mi North 11.5 mph - N/A   Overcast
2:51 AM 23.0 °F 14.7 °F 15.8 °F 74% 29.94 in 9.0 mi NNW 6.9 mph - N/A Snow Light Snow
3:00 AM 21.2 °F 8.9 °F 15.8 °F 80% 29.93 in 9.0 mi NW 12.7 mph 18.4 mph N/A Snow Light Snow
3:20 AM 21.2 °F 8.9 °F 14.0 °F 74% 29.93 in 9.0 mi NW 12.7 mph - N/A   Overcast
3:25 AM 21.2 °F 11.7 °F 15.8 °F 80% 29.93 in 9.0 mi NNW 8.1 mph - N/A Snow Light Snow
3:36 AM 21.2 °F 11.7 °F 15.8 °F 80% 29.93 in 9.0 mi NW 8.1 mph - N/A   Overcast
3:42 AM 21.2 °F 10.1 °F 14.0 °F 74% 29.93 in 9.0 mi NW 10.4 mph - N/A Snow Light Snow
3:58 AM 21.2 °F 9.5 °F 14.0 °F 74% 29.94 in 9.0 mi NNW 11.5 mph - N/A   Overcast
4:00 AM 21.2 °F 10.1 °F 14.0 °F 74% 29.94 in 9.0 mi NNW 10.4 mph - N/A   Overcast
4:06 AM 21.2 °F 12.6 °F 14.0 °F 74% 29.93 in 9.0 mi NNW 6.9 mph - N/A Snow Light Snow
4:57 AM 21.2 °F 10.1 °F 14.0 °F 74% 29.93 in 9.0 mi NNW 10.4 mph - N/A Snow Light Snow
5:00 AM 21.2 °F 11.7 °F 14.0 °F 74% 29.93 in 9.0 mi NNW 8.1 mph - N/A Snow Light Snow
5:34 AM 21.2 °F 12.6 °F 12.2 °F 68% 29.94 in 9.0 mi NNW 6.9 mph - N/A   Overcast
5:41 AM 21.2 °F 11.7 °F 12.2 °F 68% 29.94 in 9.0 mi NNW 8.1 mph - N/A   Overcast
6:00 AM 21.2 °F 12.6 °F 12.2 °F 68% 29.94 in 9.0 mi NNW 6.9 mph - N/A   Overcast
6:06 AM 19.4 °F 7.9 °F 10.4 °F 68% 29.94 in 9.0 mi NW 10.4 mph - N/A   Overcast
6:41 AM 19.4 °F 9.5 °F 12.2 °F 74% 29.94 in 9.0 mi North 8.1 mph - N/A   Overcast
7:00 AM 20 °F - 12 °F 59% 29.94 in 10 mi NNW 10.4 mph - -   Overcast
7:00 AM 19.4 °F 8.6 °F 12.2 °F 74% 29.94 in 9.0 mi NW 9.2 mph - N/A   Overcast
7:49 AM 19.4 °F 5.0 °F 10.4 °F 68% 29.96 in 9.0 mi NNW 16.1 mph - N/A Snow Light Snow
8:00 AM 19.4 °F 6.6 °F 10.4 °F 68% 29.96 in 9.0 mi NW 12.7 mph 20.7 mph N/A Snow Light Snow
8:31 AM 19.4 °F 6.6 °F 10.4 °F 68% 29.95 in 9.0 mi NW 12.7 mph 18.4 mph N/A   Overcast
8:34 AM 19.4 °F 6.6 °F 10.4 °F 68% 29.95 in 9.0 mi NNW 12.7 mph 18.4 mph N/A Snow Light Snow
8:45 AM 19.4 °F 6.0 °F 10.4 °F 68% 29.95 in 9.0 mi NW 13.8 mph 20.7 mph N/A   Overcast
9:00 AM 21.2 °F 9.5 °F 12.2 °F 68% 29.95 in 9.0 mi NW 11.5 mph 18.4 mph N/A   Overcast
9:17 AM 19.4 °F 6.6 °F 10.4 °F 68% 29.95 in 9.0 mi NNW 12.7 mph - N/A   Overcast
10:00 AM 21.2 °F 7.3 °F 10.4 °F 63% 29.94 in 9.0 mi NNW 16.1 mph 23.0 mph N/A   Overcast
11:00 AM 23.0 °F 12.4 °F 12.2 °F 63% 29.94 in 9.0 mi NW 10.4 mph 20.7 mph N/A   Overcast
11:05 AM 21.2 °F 7.3 °F 12.2 °F 68% 29.94 in 9.0 mi WNW 16.1 mph - N/A Snow Light Snow
12:00 PM 23.0 °F 11.7 °F 12.2 °F 63% 29.93 in 9.0 mi NW 11.5 mph 19.6 mph N/A   Overcast
12:06 PM 23.0 °F 12.4 °F 12.2 °F 63% 29.93 in 9.0 mi NW 10.4 mph 18.4 mph N/A Snow Light Snow
1:00 PM 25 °F - 13 °F 47% 29.91 in 10 mi NNW 11.5 mph - - Snow Light Snow
1:00 PM 24.8 °F 14.6 °F 12.2 °F 59% 29.91 in 9.0 mi NW 10.4 mph 18.4 mph N/A Snow Light Snow
1:03 PM 24.8 °F 13.4 °F 14.0 °F 64% 29.91 in 9.0 mi NW 12.7 mph 18.4 mph N/A   Overcast
1:05 PM 24.8 °F 13.4 °F 14.0 °F 64% 29.91 in 9.0 mi NW 12.7 mph 18.4 mph N/A Snow Light Snow
1:46 PM 24.8 °F 12.9 °F 15.8 °F 69% 29.90 in 5.0 mi NNW 13.8 mph - N/A Snow Light Snow
2:00 PM 24.8 °F 14.6 °F 15.8 °F 69% 29.90 in 3.0 mi NNW 10.4 mph 20.7 mph N/A Snow Light Snow
2:21 PM 24.8 °F 12.9 °F 15.8 °F 69% 29.90 in 6.0 mi NW 13.8 mph 21.9 mph N/A Snow Light Snow
2:28 PM 24.8 °F 12.9 °F 15.8 °F 69% 29.90 in 5.0 mi NNW 13.8 mph 25.3 mph N/A Snow Light Snow
3:00 PM 24.8 °F 14.0 °F 17.6 °F 74% 29.90 in 4.0 mi NW 11.5 mph 18.4 mph N/A Snow Light Snow
4:00 PM 24.8 °F 13.4 °F 19.4 °F 80% 29.91 in 3.0 mi NW 12.7 mph - N/A Snow Light Snow
4:01 PM 24.8 °F 13.4 °F 19.4 °F 80% 29.91 in 3.0 mi NW 12.7 mph - N/A Snow Light Snow
4:35 PM 24.8 °F 12.9 °F 19.4 °F 80% 29.91 in 6.0 mi NW 13.8 mph - N/A Snow Light Snow
4:42 PM 24.8 °F 12.4 °F 19.4 °F 80% 29.91 in 9.0 mi WNW 15.0 mph - N/A Snow Light Snow
5:00 PM 24.8 °F 12.4 °F 17.6 °F 74% 29.91 in 9.0 mi WNW 15.0 mph - N/A Snow Light Snow
6:00 PM 24.8 °F 12.4 °F 15.8 °F 69% 29.92 in 9.0 mi WNW 15.0 mph - N/A Snow Light Snow
7:00 PM 25 °F - 17 °F 61% 29.95 in 10 mi NW 10.4 mph - - Snow Light Snow
7:00 PM 24.8 °F 14.6 °F 17.6 °F 74% 29.95 in 9.0 mi NW 10.4 mph - N/A Snow Light Snow
7:23 PM 24.8 °F 14.6 °F 15.8 °F 69% 29.95 in 9.0 mi NNW 10.4 mph 18.4 mph N/A Snow Light Snow
7:39 PM 24.8 °F 13.4 °F 15.8 °F 69% 29.96 in 9.0 mi NW 12.7 mph - N/A Snow Light Snow
8:00 PM 24.8 °F 14.6 °F 15.8 °F 69% 29.96 in 9.0 mi NW 10.4 mph 19.6 mph N/A Snow Light Snow
9:00 PM 24.8 °F 12.4 °F 17.6 °F 74% 29.96 in 9.0 mi WNW 15.0 mph - N/A Snow Light Snow
9:28 PM 24.8 °F 14.0 °F 17.6 °F 74% 29.96 in 9.0 mi WNW 11.5 mph 17.3 mph N/A Snow Light Snow
10:00 PM 24.8 °F 12.9 °F 17.6 °F 74% 29.96 in 9.0 mi WNW 13.8 mph - N/A Snow Light Snow
11:00 PM 23.0 °F 11.7 °F 17.6 °F 80% 29.96 in 9.0 mi WNW 11.5 mph - N/A Snow Light Snow
11:54 PM 23.0 °F 11.1 °F 17.6 °F 80% 29.96 in 9.0 mi NW 12.7 mph - N/A Snow Light Snow
11:55 PM 23.0 °F 13.1 °F 17.6 °F 80% 29.96 in 9.0 mi NW 9.2 mph 17.3 mph N/A   Scattered Clouds